IRIDIUM 106 1 41917U 17003A 26104.74567351 .00000054 00000+0 12112-4 0 9993 2 41917 86.3925 115.0863 0002678 92.4485 267.7018 14.34217605484118 IRIDIUM 103 1 41918U 17003B 26104.73298777 .00000074 00000+0 19510-4 0 9997 2 41918 86.3925 114.9916 0002131 97.8605 262.2832 14.34217701484136 IRIDIUM 109 1 41919U 17003C 26104.39048927 .00000035 00000+0 54229-5 0 9994 2 41919 86.3928 115.1934 0002252 92.6862 267.4592 14.34217625484051 IRIDIUM 102 1 41920U 17003D 26104.63785022 -.00000019 00000+0 -14006-4 0 9999 2 41920 86.3928 115.0147 0002214 89.7358 270.4091 14.34217085484174 IRIDIUM 105 1 41921U 17003E 26104.94788067 .00000097 00000+0 27403-4 0 9995 2 41921 86.3925 83.3124 0002254 88.5911 271.5543 14.34398397486071 IRIDIUM 104 1 41922U 17003F 26104.09238546 .00000067 00000+0 16934-4 0 9998 2 41922 86.3924 115.2845 0002004 92.9556 267.1869 14.34218111484089 IRIDIUM 114 1 41923U 17003G 26104.93595193 .00000061 00000+0 14860-4 0 9996 2 41923 86.3926 114.9151 0002141 94.6433 265.5008 14.34217846484185 IRIDIUM 108 1 41924U 17003H 26104.89447103 .00000083 00000+0 22479-4 0 9998 2 41924 86.3921 83.2263 0002260 84.2829 275.8624 14.34218646486032 IRIDIUM 112 1 41925U 17003J 26104.78372972 .00000012 00000+0 -27400-5 0 9991 2 41925 86.3925 114.8236 0002027 91.7871 268.3557 14.34217486484186 IRIDIUM 111 1 41926U 17003K 26104.77104483 -.00000002 00000+0 -77471-5 0 9994 2 41926 86.3927 114.8982 0002163 93.4039 266.7405 14.34217357484162 IRIDIUM 113 1 42803U 17039A 26104.96031429 -.00000026 00000+0 -16323-4 0 9992 2 42803 86.4005 348.6107 0001792 85.5370 274.6030 14.34217504462126 IRIDIUM 123 1 42804U 17039B 26104.86225681 .00000005 00000+0 -51837-5 0 9993 2 42804 86.4013 20.0956 0002157 88.8945 271.2498 14.34217609460876 IRIDIUM 120 1 42805U 17039C 26104.95397282 .00000066 00000+0 16568-4 0 9998 2 42805 86.3999 348.4044 0002320 84.1130 276.0330 14.34217821462114 IRIDIUM 115 1 42806U 17039D 26104.61153039 .00000222 00000+0 59946-4 0 9993 2 42806 86.4535 348.6677 0002442 90.5924 269.5557 14.43279870465093 IRIDIUM 118 1 42807U 17039E 26104.82420355 .00000162 00000+0 50908-4 0 9997 2 42807 86.4018 20.1099 0002146 85.3195 274.8246 14.34218198460863 IRIDIUM 117 1 42808U 17039F 26104.70369150 .00000143 00000+0 44009-4 0 9994 2 42808 86.4017 20.1184 0002234 88.8451 271.3001 14.34218600460879 IRIDIUM 126 1 42809U 17039G 26104.51975477 -.00000121 00000+0 -50439-4 0 9991 2 42809 86.4012 20.2453 0001952 87.0974 273.0445 14.34216347460824 IRIDIUM 124 1 42810U 17039H 26104.82276324 .00000237 00000+0 64314-4 0 9995 2 42810 86.4471 316.8739 0002240 89.3311 270.8146 14.43292556465977 IRIDIUM 128 1 42811U 17039J 26104.92910623 .00000051 00000+0 11030-4 0 9995 2 42811 86.3973 51.5847 0002482 85.1335 275.0144 14.34217965460910 IRIDIUM 121 1 42812U 17039K 26104.81787369 .00000167 00000+0 52673-4 0 9999 2 42812 86.4018 20.1482 0002290 83.5502 276.5954 14.34214924460742 IRIDIUM 133 1 42955U 17061A 26104.89104840 .00000091 00000+0 25334-4 0 9997 2 42955 86.3975 51.7169 0002295 86.7919 273.3539 14.34218649445706 IRIDIUM 100 1 42956U 17061B 26104.88470718 .00000031 00000+0 41166-5 0 9993 2 42956 86.3974 51.6395 0002282 87.5534 272.5924 14.34218043445701 IRIDIUM 122 1 42957U 17061C 26104.92276347 .00000168 00000+0 52883-4 0 9999 2 42957 86.3970 51.6235 0002285 88.9110 271.2348 14.34217897445712 IRIDIUM 129 1 42958U 17061D 26104.87836651 .00000163 00000+0 51012-4 0 9992 2 42958 86.3973 51.7086 0001971 82.3716 277.7704 14.34218144445726 IRIDIUM 119 1 42959U 17061E 26104.91642029 .00000001 00000+0 -68756-5 0 9998 2 42959 86.3971 51.6884 0002024 88.1451 271.9976 14.34217262445749 IRIDIUM 107 1 42960U 17061F 26104.86569067 .00000160 00000+0 49968-4 0 9992 2 42960 86.3974 51.7302 0002369 92.4293 267.7174 14.34219389445749 IRIDIUM 132 1 42961U 17061G 26104.87202148 .00000107 00000+0 31277-4 0 9993 2 42961 86.3972 51.7074 0002288 87.5623 272.5835 14.34216852445746 IRIDIUM 136 1 42962U 17061H 26104.90373589 .00000199 00000+0 63844-4 0 9992 2 42962 86.3976 51.7006 0002248 88.8280 271.3173 14.34217296445762 IRIDIUM 139 1 42963U 17061J 26104.91007873 .00000179 00000+0 56679-4 0 9990 2 42963 86.3974 51.7589 0002378 86.8873 273.2595 14.34217497445770 IRIDIUM 125 1 42964U 17061K 26104.89739221 -.00000036 00000+0 -19956-4 0 9998 2 42964 86.3974 51.8244 0001946 100.3731 259.7684 14.34217421445781 IRIDIUM 135 1 43070U 17083A 26104.94128726 .00000128 00000+0 38605-4 0 9991 2 43070 86.4006 348.4599 0002185 84.8561 275.2884 14.34218052435086 IRIDIUM 138 1 43071U 17083B 26104.96665658 .00000043 00000+0 83984-5 0 9991 2 43071 86.4022 348.1356 0001792 89.2695 270.8706 14.34218055435079 IRIDIUM 116 1 43072U 17083C 26104.93494518 .00000083 00000+0 22596-4 0 9999 2 43072 86.4002 348.4492 0002444 83.7352 276.4122 14.34217524435104 IRIDIUM 130 1 43073U 17083D 26104.97300046 .00000111 00000+0 32695-4 0 9999 2 43073 86.4011 348.7024 0002395 88.9032 271.2438 14.34217293435056 IRIDIUM 151 1 43074U 17083E 26104.94762979 .00000120 00000+0 35940-4 0 9990 2 43074 86.4003 348.5002 0002243 83.7573 276.3878 14.34217825435074 IRIDIUM 134 1 43075U 17083F 26104.91591698 -.00000003 00000+0 -79820-5 0 9994 2 43075 86.4003 348.5203 0002159 87.5997 272.5446 14.34217544435039 IRIDIUM 137 1 43076U 17083G 26104.64953124 .00000165 00000+0 51718-4 0 9993 2 43076 86.4009 348.7235 0002439 74.5993 285.5472 14.34218047435061 IRIDIUM 141 1 43077U 17083H 26104.92225865 -.00000021 00000+0 -14468-4 0 9993 2 43077 86.3999 348.4435 0001961 84.5010 275.6409 14.34217553435104 IRIDIUM 153 1 43078U 17083J 26104.87443690 .00000016 00000+0 -12164-5 0 9991 2 43078 86.3947 316.9612 0001857 92.5516 267.5892 14.34217902436205 IRIDIUM 131 1 43079U 17083K 26104.90957363 -.00000003 00000+0 -81787-5 0 9997 2 43079 86.4005 348.6304 0001978 83.5449 276.5972 14.34217623435030 IRIDIUM 144 1 43249U 18030A 26104.88078060 .00000185 00000+0 59016-4 0 9992 2 43249 86.3945 316.8894 0002273 86.6606 273.4849 14.34218089421064 IRIDIUM 149 1 43250U 18030B 26104.81735444 .00000403 00000+0 13684-3 0 9996 2 43250 86.3949 316.8837 0002057 87.7905 272.3526 14.34218119421076 IRIDIUM 157 1 43251U 18030C 26104.62707641 .00000169 00000+0 53422-4 0 9998 2 43251 86.3949 317.0151 0002141 88.1629 271.9812 14.34218388421027 IRIDIUM 140 1 43252U 18030D 26104.85540989 .00000012 00000+0 -28486-5 0 9995 2 43252 86.3946 316.9320 0002080 89.1951 270.9483 14.34217649421114 IRIDIUM 145 1 43253U 18030E 26104.91249547 .00000178 00000+0 56550-4 0 9993 2 43253 86.3949 316.8808 0002465 86.0866 274.0612 14.34218422421058 IRIDIUM 146 1 43254U 18030F 26104.82369640 .00000119 00000+0 35365-4 0 9997 2 43254 86.3946 316.9302 0002262 86.6887 273.4567 14.34218687421055 IRIDIUM 148 1 43255U 18030G 26104.86174924 .00000170 00000+0 53736-4 0 9990 2 43255 86.3950 316.9566 0002141 84.6948 275.4492 14.34214852421098 IRIDIUM 142 1 43256U 18030H 26104.83003237 .00000164 00000+0 51418-4 0 9994 2 43256 86.3953 316.8608 0002319 88.4927 271.6534 14.34214281421051 IRIDIUM 150 1 43257U 18030J 26104.86809577 .00000067 00000+0 16850-4 0 9992 2 43257 86.3950 316.9595 0002215 88.8837 271.2612 14.34217054421081 IRIDIUM 143 1 43258U 18030K 26104.91883686 .00000111 00000+0 32487-4 0 9996 2 43258 86.3953 317.0284 0002299 87.4080 272.7379 14.34217201421023 IRIDIUM 161 1 43478U 18047C 26104.38462105 .00000139 00000+0 35403-4 0 9999 2 43478 86.4446 115.1566 0002045 86.8287 273.3148 14.43280746415934 IRIDIUM 152 1 43479U 18047D 26104.96132226 .00000034 00000+0 51765-5 0 9996 2 43479 86.3920 114.7757 0002148 92.1478 267.9964 14.34217591413429 IRIDIUM 147 1 43480U 18047E 26104.96766432 .00000013 00000+0 -24310-5 0 9994 2 43480 86.3927 114.7772 0002259 89.9752 270.1702 14.34217686413428 IRIDIUM 110 1 43481U 18047F 26104.55539522 .00000015 00000+0 -16585-5 0 9995 2 43481 86.3929 115.0397 0001799 89.7741 270.3661 14.34217573413355 IRIDIUM 162 1 43482U 18047G 26104.72497274 .00000035 00000+0 43297-5 0 9993 2 43482 86.4445 114.9059 0002314 94.0645 266.0821 14.43278473415975 IRIDIUM 160 1 43569U 18061A 26104.91984348 .00000036 00000+0 57925-5 0 9993 2 43569 86.3924 83.2505 0002164 85.2418 274.9025 14.34217629404304 IRIDIUM 166 1 43570U 18061B 26104.94521714 .00000116 00000+0 34236-4 0 9990 2 43570 86.3920 83.1910 0002414 87.9715 272.1757 14.34213557404339 IRIDIUM 158 1 43571U 18061C 26104.91350076 .00000187 00000+0 59828-4 0 9991 2 43571 86.3926 83.2143 0002207 90.9452 269.1997 14.34217060404297 IRIDIUM 165 1 43572U 18061D 26104.86910060 .00000184 00000+0 58722-4 0 9990 2 43572 86.3921 83.2779 0002413 87.0768 273.0704 14.34216087404315 IRIDIUM 155 1 43573U 18061E 26104.90081594 .00000041 00000+0 75994-5 0 9990 2 43573 86.3921 83.1369 0002329 91.3607 268.7856 14.34217699404281 IRIDIUM 154 1 43574U 18061F 26104.88178916 .00000191 00000+0 61139-4 0 9994 2 43574 86.3922 83.2753 0002439 86.3555 273.7919 14.34217583404333 IRIDIUM 163 1 43575U 18061G 26104.93251875 .00000133 00000+0 40321-4 0 9993 2 43575 86.3922 83.1714 0002173 90.0037 270.1407 14.34214471404316 IRIDIUM 156 1 43576U 18061H 26104.90715736 .00000049 00000+0 10276-4 0 9994 2 43576 86.3921 83.1893 0002372 90.9391 269.2076 14.34217696404309 IRIDIUM 164 1 43577U 18061J 26104.88813088 .00000022 00000+0 83388-6 0 9998 2 43577 86.3922 83.2366 0002346 84.0085 276.1378 14.34217444404349 IRIDIUM 159 1 43578U 18061K 26104.92618534 .00000097 00000+0 27671-4 0 9996 2 43578 86.3919 83.1587 0002145 86.2613 273.8828 14.34216120404319 IRIDIUM 180 1 43922U 19002A 26104.85591402 .00000013 00000+0 -24316-5 0 9994 2 43922 86.4019 20.0593 0002098 82.7473 277.3961 14.34217615379917 IRIDIUM 176 1 43923U 19002B 26104.88105636 .00000510 00000+0 76980-4 0 9992 2 43923 86.6138 20.0011 0002601 83.7976 276.3537 14.72255001389930 IRIDIUM 168 1 43924U 19002C 26104.84957159 .00000058 00000+0 13766-4 0 9994 2 43924 86.4021 20.1373 0002171 86.4124 273.7320 14.34217568379898 IRIDIUM 173 1 43925U 19002D 26104.69734853 .00000170 00000+0 53543-4 0 9994 2 43925 86.4017 20.0924 0002144 88.0941 272.0500 14.34218703379850 IRIDIUM 169 1 43926U 19002E 26104.88694234 .00000191 00000+0 55950-4 0 9991 2 43926 86.4229 51.6447 0002521 100.7673 259.3809 14.38608250381126 IRIDIUM 172 1 43927U 19002F 26104.48170020 .00000027 00000+0 24295-5 0 9997 2 43927 86.4018 20.1901 0002089 82.5930 277.5504 14.34217902379836 IRIDIUM 175 1 43928U 19002G 26104.92137900 .00000228 00000+0 61251-4 0 9992 2 43928 86.4502 316.9861 0005347 79.2285 280.9518 14.43588910389858 IRIDIUM 171 1 43929U 19002H 26104.81151569 .00000143 00000+0 44063-4 0 9996 2 43929 86.4025 20.3515 0002343 85.2890 274.8573 14.34218741379879 IRIDIUM 170 1 43930U 19002J 26104.81926895 .00000527 00000+0 79733-4 0 9998 2 43930 86.6137 20.0297 0002360 83.2418 276.9067 14.72251672389935 IRIDIUM 167 1 43931U 19002K 26104.10748868 .00000075 00000+0 19600-4 0 9998 2 43931 86.4017 20.3682 0002541 88.2309 271.9178 14.34217803379772 IRIDIUM 181 1 56726U 23068S 26104.87804760 .00000164 00000+0 42618-4 0 9993 2 56726 86.4459 83.2546 0002318 79.7798 280.3664 14.43311389153301 IRIDIUM 177 1 56727U 23068T 26104.97995170 .00000648 00000+0 81803-4 0 9997 2 56727 86.2010 358.8088 0002158 89.3460 270.8009 14.80217477157013 IRIDIUM 174 1 56728U 23068U 26104.80691368 .00000522 00000+0 78841-4 0 9991 2 56728 86.6147 20.1760 0002141 85.4355 274.7107 14.72260598156695 IRIDIUM 178 1 56729U 23068V 26104.90139543 .00000707 00000+0 89557-4 0 9996 2 56729 86.6545 51.7952 0002708 82.0933 278.0596 14.80234461157009 IRIDIUM 179 1 56730U 23068W 26104.89601579 .00000708 00000+0 89687-4 0 9994 2 56730 86.6766 60.5918 0002963 88.7849 271.3712 14.80234193157006